"Sample Date","Sample Time","Sample Value","Units","Flow Rate","Laser Status","Micron Size 0","Counts/Channel 0","Micron Size 1","Counts/Channel 1","Micron Size 2","Counts/Channel 2","Micron Size 3","Counts/Channel 3","Micron Size 4","Counts/Channel 4","Micron Size 5","Counts/Channel 5","Micron Size 6","Counts/Channel 6","Micron Size 7","Counts/Channel 7","Micron Size 8","Counts/Channel 8","Micron Size 9","Counts/Channel 9","Micron Size 10","Counts/Channel 10","Micron Size 11","Counts/Channel 11","Micron Size 12","Counts/Channel 12","Micron Size 13","Counts/Channel 13","Micron Size 14","Counts/Channel 14","Micron Size 15","Counts/Channel 15","Micron Size 16","Counts/Channel 16","Micron Size 17","Counts/Channel 17","Micron Size 18","Counts/Channel 18","Micron Size 19","Counts/Channel 19","Micron Size 20","Counts/Channel 20","Micron Size 21","Counts/Channel 21","Micron Size 22","Counts/Channel 22","Micron Size 23","Counts/Channel 23","Micron Size 24","Counts/Channel 24","Micron Size 25","Counts/Channel 25","Micron Size 26","Counts/Channel 26","Micron Size 27","Counts/Channel 27","Micron Size 28","Counts/Channel 28","Micron Size 29","Counts/Channel 29","Micron Size 30","Counts/Channel 30","Micron Size 31","Counts/Channel 31"
"05/02/07","13:00:41",279438.000,"cf",1.000,1,0.100,235007.000,0.200,40116.000,0.300,3670.000,0.500,540.000,1.000,105.000,5.000,0
"05/02/07","13:01:41",295320.000,"cf",1.000,1,0.100,247412.000,0.200,43188.000,0.300,4090.000,0.500,540.000,1.000,90.000,5.000,0
"05/02/07","13:02:41",338766.000,"cf",1.000,1,0.100,283607.000,0.200,50027.000,0.300,4474.000,0.500,552.000,1.000,106.000,5.000,0
"05/02/07","13:03:41",418099.000,"cf",1.000,1,0.100,350521.000,0.200,61705.000,0.300,5185.000,0.500,578.000,1.000,110.000,5.000,0
"05/02/07","13:04:06",153114.000,"cf",1.000,1,0.100,128043.000,0.200,22831.000,0.300,1964.000,0.500,232.000,1.000,44.000,5.000,0
"05/02/07","13:05:11",398265.000,"cf",1.001,1,0.100,333313.000,0.200,59111.000,0.300,5061.000,0.500,648.000,1.000,132.000,5.000,0
"05/02/07","13:06:11",412119.000,"cf",1.000,1,0.100,346373.000,0.200,59731.000,0.300,5210.000,0.500,656.000,1.000,149.000,5.000,0
"05/02/07","13:07:11",359926.000,"cf",1.000,1,0.100,301658.000,0.200,52827.000,0.300,4726.000,0.500,600.000,1.000,115.000,5.000,0
"05/02/07","13:08:11",329597.000,"cf",1.000,1,0.100,275916.000,0.200,48758.000,0.300,4257.000,0.500,572.000,1.000,93.000,5.000,1.000
"05/02/07","13:09:11",330849.000,"cf",1.000,1,0.100,278043.000,0.200,47914.000,0.300,4170.000,0.500,592.000,1.000,130.000,5.000,0
"05/02/07","13:10:11",443394.000,"cf",1.000,1,0.100,379743.000,0.200,58018.000,0.300,4752.000,0.500,690.000,1.000,191.000,5.000,0
"05/02/07","13:10:54",267178.000,"cf",1.000,1,0.100,228074.000,0.200,35664.000,0.300,2930.000,0.500,427.000,1.000,82.000,5.000,1.000
"05/02/07","13:11:59",402455.000,"cf",1.001,1,0.100,342342.000,0.200,54919.000,0.300,4476.000,0.500,606.000,1.000,112.000,5.000,0
"05/02/07","13:12:59",336396.000,"cf",1.000,1,0.100,284831.000,0.200,47183.000,0.300,3783.000,0.500,516.000,1.000,83.000,5.000,0
"05/02/07","13:13:59",323077.000,"cf",1.000,1,0.100,272518.000,0.200,46197.000,0.300,3770.000,0.500,488.000,1.000,103.000,5.000,1.000
"05/02/07","13:14:59",338044.000,"cf",1.000,1,0.100,284059.000,0.200,49321.000,0.300,3999.000,0.500,562.000,1.000,103.000,5.000,0
"05/02/07","13:15:59",341038.000,"cf",1.000,1,0.100,285699.000,0.200,50432.000,0.300,4140.000,0.500,618.000,1.000,149.000,5.000,0
"05/02/07","13:16:59",346158.000,"cf",1.000,1,0.100,289718.000,0.200,51367.000,0.300,4312.000,0.500,629.000,1.000,132.000,5.000,0
"05/02/07","13:17:59",306084.000,"cf",1.000,1,0.100,256174.000,0.200,45431.000,0.300,3867.000,0.500,521.000,1.000,90.000,5.000,1.000
"05/02/07","13:18:59",304164.000,"cf",1.000,1,0.100,255538.000,0.200,44336.000,0.300,3677.000,0.500,503.000,1.000,110.000,5.000,0
"05/02/07","13:19:59",282913.000,"cf",1.000,1,0.100,237686.000,0.200,41218.000,0.300,3446.000,0.500,456.000,1.000,107.000,5.000,0
"05/02/07","13:20:59",288222.000,"cf",1.001,1,0.100,241818.000,0.200,42294.000,0.300,3540.000,0.500,483.000,1.000,86.000,5.000,1.000
"05/02/07","13:21:59",317092.000,"cf",1.000,1,0.100,265956.000,0.200,46538.000,0.300,3962.000,0.500,518.000,1.000,118.000,5.000,0
"05/02/07","13:22:59",303867.000,"cf",1.000,1,0.100,254941.000,0.200,44437.000,0.300,3817.000,0.500,515.000,1.000,157.000,5.000,0
"05/02/07","13:23:59",290187.000,"cf",1.000,1,0.100,243590.000,0.200,42188.000,0.300,3814.000,0.500,485.000,1.000,110.000,5.000,0
"05/02/07","13:24:59",397212.000,"cf",1.000,1,0.100,334506.000,0.200,57391.000,0.300,4655.000,0.500,548.000,1.000,112.000,5.000,0
"05/02/07","13:25:59",498586.000,"cf",1.000,1,0.100,423282.000,0.200,69206.000,0.300,5325.000,0.500,620.000,1.000,152.000,5.000,1.000
"05/02/07","13:26:59",482796.000,"cf",0.999,1,0.100,411264.000,0.200,65240.000,0.300,5441.000,0.500,656.000,1.000,194.000,5.000,1.000
"05/02/07","13:27:59",502582.000,"cf",1.000,1,0.100,430453.000,0.200,65418.000,0.300,5701.000,0.500,803.000,1.000,207.000,5.000,0
"05/02/07","13:28:59",557878.000,"cf",1.000,1,0.100,483992.000,0.200,66933.000,0.300,5876.000,0.500,864.000,1.000,213.000,5.000,0
"05/02/07","13:29:59",538479.000,"cf",1.000,1,0.100,465076.000,0.200,66541.000,0.300,5736.000,0.500,862.000,1.000,264.000,5.000,0
"05/02/07","13:30:59",453992.000,"cf",1.000,1,0.100,390393.000,0.200,57574.000,0.300,5032.000,0.500,776.000,1.000,217.000,5.000,0
"05/02/07","13:31:59",415522.000,"cf",1.000,1,0.100,355900.000,0.200,53925.000,0.300,4778.000,0.500,739.000,1.000,180.000,5.000,0
"05/02/07","13:32:59",381235.000,"cf",1.000,1,0.100,326424.000,0.200,49627.000,0.300,4425.000,0.500,618.000,1.000,140.000,5.000,1.000
"05/02/07","13:33:59",514864.000,"cf",1.000,1,0.100,441684.000,0.200,66818.000,0.300,5355.000,0.500,796.000,1.000,211.000,5.000,0
"05/02/07","13:34:59",752635.000,"cf",1.000,1,0.100,647746.000,0.200,97873.000,0.300,6030.000,0.500,786.000,1.000,200.000,5.000,0
"05/02/07","13:35:59",629296.000,"cf",1.000,1,0.100,540974.000,0.200,81461.000,0.300,5842.000,0.500,827.000,1.000,192.000,5.000,0
"05/02/07","13:36:59",560692.000,"cf",1.000,1,0.100,480784.000,0.200,73614.000,0.300,5476.000,0.500,678.000,1.000,140.000,5.000,0
"05/02/07","13:37:59",499542.000,"cf",1.000,1,0.100,428343.000,0.200,65477.000,0.300,5055.000,0.500,553.000,1.000,114.000,5.000,0
"05/02/07","13:38:59",453977.000,"cf",1.000,1,0.100,387094.000,0.200,61503.000,0.300,4760.000,0.500,527.000,1.000,93.000,5.000,0
"05/02/07","13:39:59",419165.000,"cf",1.000,1,0.100,356972.000,0.200,57120.000,0.300,4547.000,0.500,454.000,1.000,72.000,5.000,0
"05/02/07","13:40:59",388216.000,"cf",1.000,1,0.100,329338.000,0.200,54068.000,0.300,4315.000,0.500,428.000,1.000,67.000,5.000,0
"05/02/07","13:41:58",365902.000,"cf",1.000,1,0.100,309945.000,0.200,51389.000,0.300,4047.000,0.500,456.000,1.000,65.000,5.000,0
"05/02/07","13:42:58",355075.000,"cf",1.000,1,0.100,299623.000,0.200,50871.000,0.300,4089.000,0.500,424.000,1.000,68.000,5.000,0
"05/02/07","13:43:58",348408.000,"cf",1.000,1,0.100,293466.000,0.200,50451.000,0.300,4016.000,0.500,414.000,1.000,61.000,5.000,0
"05/02/07","13:44:58",343943.000,"cf",1.000,1,0.100,288936.000,0.200,50638.000,0.300,3936.000,0.500,373.000,1.000,60.000,5.000,0
"05/02/07","13:45:58",337035.000,"cf",1.000,1,0.100,282673.000,0.200,49928.000,0.300,3989.000,0.500,389.000,1.000,56.000,5.000,0
"05/02/07","13:46:58",323517.000,"cf",1.000,1,0.100,270341.000,0.200,48873.000,0.300,3851.000,0.500,385.000,1.000,67.000,5.000,0
"05/02/07","13:47:58",303851.000,"cf",1.000,1,0.100,253847.000,0.200,45795.000,0.300,3730.000,0.500,441.000,1.000,38.000,5.000,0
"05/02/07","13:48:58",284153.000,"cf",1.000,1,0.100,237052.000,0.200,43204.000,0.300,3478.000,0.500,370.000,1.000,49.000,5.000,0
"05/02/07","13:49:58",272396.000,"cf",1.000,1,0.100,227209.000,0.200,41133.000,0.300,3531.000,0.500,467.000,1.000,56.000,5.000,0
"05/02/07","13:50:58",298153.000,"cf",1.000,1,0.100,248549.000,0.200,44774.000,0.300,4048.000,0.500,656.000,1.000,126.000,5.000,0
"05/02/07","13:51:58",290943.000,"cf",1.000,1,0.100,242982.000,0.200,43496.000,0.300,3856.000,0.500,505.000,1.000,104.000,5.000,0
"05/02/07","13:52:58",384363.000,"cf",1.000,1,0.100,322230.000,0.200,56549.000,0.300,4642.000,0.500,750.000,1.000,192.000,5.000,0
"05/02/07","13:53:58",449149.000,"cf",1.000,1,0.100,374429.000,0.200,67685.000,0.300,6001.000,0.500,846.000,1.000,188.000,5.000,0
"05/02/07","13:54:58",598829.000,"cf",0.999,1,0.100,501151.000,0.200,88966.000,0.300,7488.000,0.500,947.000,1.000,277.000,5.000,0
"05/02/07","13:55:58",693092.000,"cf",0.999,1,0.100,581377.000,0.200,102609.000,0.300,7595.000,0.500,1115.000,1.000,395.000,5.000,1.000
"05/02/07","13:56:58",582391.000,"cf",1.000,1,0.100,487848.000,0.200,86073.000,0.300,6855.000,0.500,1227.000,1.000,387.000,5.000,1.000
"05/02/07","13:57:58",459034.000,"cf",1.000,1,0.100,383092.000,0.200,68798.000,0.300,5791.000,0.500,1028.000,1.000,325.000,5.000,0
"05/02/07","13:58:58",467139.000,"cf",1.000,1,0.100,390599.000,0.200,69238.000,0.300,5905.000,0.500,1046.000,1.000,351.000,5.000,0
"05/02/07","13:59:58",477017.000,"cf",1.000,1,0.100,399776.000,0.200,70143.000,0.300,5824.000,0.500,985.000,1.000,289.000,5.000,0
"05/02/07","13:54:58",598829.000,"cf",0.999,1,0.100,501151.000,0.200,88966.000,0.300,7488.000,0.500,947.000,1.000,277.000,5.000,0
"05/02/07","13:55:58",693092.000,"cf",0.999,1,0.100,581377.000,0.200,102609.000,0.300,7595.000,0.500,1115.000,1.000,395.000,5.000,1.000
"05/02/07","13:56:58",582391.000,"cf",1.000,1,0.100,487848.000,0.200,86073.000,0.300,6855.000,0.500,1227.000,1.000,387.000,5.000,1.000
"05/02/07","13:57:58",459034.000,"cf",1.000,1,0.100,383092.000,0.200,68798.000,0.300,5791.000,0.500,1028.000,1.000,325.000,5.000,0
"05/02/07","13:58:58",467139.000,"cf",1.000,1,0.100,390599.000,0.200,69238.000,0.300,5905.000,0.500,1046.000,1.000,351.000,5.000,0
"05/02/07","13:59:58",477017.000,"cf",1.000,1,0.100,399776.000,0.200,70143.000,0.300,5824.000,0.500,985.000,1.000,289.000,5.000,0
